Regional Weather Roundup
Issued by NWS

Home | Current Version | Previous Version | Text Only | Print | Product List | Glossary Off
Versions: 1 2 3 4 5 6 7 8 9 10 11 12 13 14 15 16 17 18 19 20 21 22 23 24 25 26 27 28 29 30 31 32 33 34 35 36 37 38 39 40 41 42 43 44 45 46 47 48 49 50

000
ASUS43 KMKX 271800
RWRWI

WISCONSIN REGIONAL WEATHER ROUNDUP
NATIONAL WEATHER SERVICE MILWAUKEE/SULLIVAN WI
100 PM CDT SAT AUG 27 2016

NOTE: "FAIR" INDICATES FEW OR NO CLOUDS BELOW 12,000 FEET WITH NO
SIGNIFICANT WEATHER AND/OR OBSTRUCTIONS TO VISIBILITY.

WIZ001-002-006>008-014>016-023>028-271900-
NORTHWEST WISCONSIN

CITY           SKY/WX    TMP DP  RH WIND       PRES   REMARKS
SUPERIOR ARPT  CLOUDY    64  60  86 E3        30.04F
ASHLAND        CLOUDY    68  57  68 CALM      30.05F
6HR MIN TEMP:  50; 6HR MAX TEMP:  69;

HAYWARD        LGT RAIN  65  56  72 CALM      30.06F
6HR MIN TEMP:  54; 6HR MAX TEMP:  66; 6HR PCP:  0.01;

SIREN          LGT RAIN  63  60  91 SE3       30.04F
CUMBERLAND     LGT RAIN  63  57  82 SE6       30.05F
RICE LAKE      CLOUDY    69  59  70 CALM      30.05F
CHETEK         NOT AVBL
LADYSMITH      CLOUDY    70  56  62 SE5       30.07F
EAU CLAIRE     NOT AVBL
MENOMONIE      CLOUDY    67  60  77 E6        30.03F
6HR MIN TEMP:  60; 6HR MAX TEMP:  67;

NEW RICHMOND   CLOUDY    65  59  79 SE6       30.03F
OSCEOLA        CLOUDY    65  65 100 SE8       30.06F
$$

WIZ003>005-009-010-017-018-271900-
NORTH CENTRAL WISCONSIN

CITY           SKY/WX    TMP DP  RH WIND       PRES   REMARKS
MANITOWISH WTR NOT AVBL
ARBOR VITAE    MOSUNNY   70  57  64 SE7       30.08F
WOODRUFF       MOSUNNY   70  57  64 SE7       30.08F
RHINELANDER    CLOUDY    67  57  70 S6        30.09F
6HR MIN TEMP:  57; 6HR MAX TEMP:  68;

EAGLE RIVER    CLOUDY    67  55  64 CALM      30.08F
LAND O LAKES   PTSUNNY   70  53  55 S7        30.10S
PHILLIPS       CLOUDY    68  57  68 CALM      30.05F
6HR MIN TEMP:  54; 6HR MAX TEMP:  68;

TOMAHAWK       CLOUDY    67  57  71 CALM      30.08F
MEDFORD        PTSUNNY   67  58  72 SE9       30.06F
MERRILL        CLOUDY    67  59  74 SE10      30.08F
$$

WIZ029-030-035-036-043>047-271900-
CENTRAL WISCONSIN

CITY           SKY/WX    TMP DP  RH WIND       PRES   REMARKS
WAUSAU         CLOUDY    66  58  75 SE12      30.06F
6HR MIN TEMP:  58; 6HR MAX TEMP:  66;

MOSINEE        CLOUDY    63  61  94 E6        30.08F
MARSHFIELD     CLOUDY    66  56  70 E9        30.05F
6HR MIN TEMP:  59; 6HR MAX TEMP:  66;

STEVENS POINT  CLOUDY    62  58  88 NE6       30.07F
WAUPACA        CLOUDY    68  63  84 NE5       30.06F
WAUTOMA        CLOUDY    65  61  87 E8        30.06S
6HR MIN TEMP:  60; 6HR MAX TEMP:  65; 6HR PCP: TRACE;

WISC RAPIDS    CLOUDY    67  61  81 SE8       30.06F
6HR MIN TEMP:  60; 6HR MAX TEMP:  67; 6HR PCP:  0.01;

CAMP DOUGLAS   NOT AVBL
$$

WIZ011>013-019>022-031-037>040-048>050-271900-
NORTHEAST WISCONSIN

CITY           SKY/WX    TMP DP  RH WIND       PRES   REMARKS
ANTIGO         CLOUDY    64  59  81 E5        30.09F
SHAWANO        CLOUDY    67  62  84 E5        30.08F
OCONTO         NOT AVBL
STURGEON BAY   CLOUDY    65  61  87 E8        30.08F
6HR MIN TEMP:  60; 6HR MAX TEMP:  66; 6HR PCP:  0.01;

GREEN BAY      CLOUDY    65  63  93 E7        30.06F
6HR MIN TEMP:  62; 6HR MAX TEMP:  65; 6HR PCP:  0.13;

MANITOWOC      CLOUDY    64  61  88 MISG      30.07F
APPLETON       CLOUDY    64  61  88 E6        30.05F
CLINTONVILLE   CLOUDY    64  61  88 E3        30.07S
OSHKOSH        CLOUDY    64  61  90 E10       30.05F FOG
6HR MIN TEMP:  61; 6HR MAX TEMP:  64; 6HR PCP:  0.26;

$$

WIZ032>034-041-042-053>061-271900-
SOUTHWEST WISCONSIN

CITY           SKY/WX    TMP DP  RH WIND       PRES   REMARKS
LA CROSSE      CLOUDY    69  63  81 NE5       30.02F
6HR MIN TEMP:  64; 6HR MAX TEMP:  69;

SPARTA         CLOUDY    65  61  87 E6        30.05S
VIROQUA        CLOUDY    68  64  87 CALM      30.03F
6HR MIN TEMP:  60; 6HR MAX TEMP:  68; 6HR PCP:  0.11;

BOSCOBEL       CLOUDY    69  64  84 VRB5      30.02F
6HR MIN TEMP:  64; 6HR MAX TEMP:  70; 6HR PCP: TRACE;

PRAIRIE DU CHI CLOUDY    69  68  96 SE5       30.01S
PLATTEVILLE    CLOUDY    70  70 100 CALM      30.02F
$$

WIZ056-057-062-063-064-067-068-271900-
SOUTH CENTRAL WISCONSIN

CITY           SKY/WX    TMP DP  RH WIND       PRES   REMARKS
REEDSBURG      NOT AVBL
BARABOO/DELLS  CLOUDY    66  62  86 E9        30.04S
LONE ROCK      NOT AVBL
MINERAL POINT  CLOUDY    68  68 100 E5        30.03F
MADISON        DRIZZLE   67  64  90 E8        30.03F FOG
6HR MIN TEMP:  61; 6HR MAX TEMP:  67; 6HR PCP:  0.01;

MIDDLETON      CLOUDY    67  67 100 E3        30.04F
WATERTOWN      CLOUDY    68  67  97 E5        30.04S
MONROE         CLOUDY    72  68  88 S6        30.03F
JANESVILLE     CLOUDY    77  70  78 VRB5      30.02S
$$

WIZ051-052-058>065-066-070>072-271900-
SOUTHEAST WISCONSIN

CITY           SKY/WX    TMP DP  RH WIND       PRES   REMARKS
MILWAUKEE      CLOUDY    73  67  81 CALM      30.04F
6HR MIN TEMP:  63; 6HR MAX TEMP:  73; 6HR PCP:  0.01;

WAUKESHA       CLOUDY    66  64  94 E5        30.06F
MILWAUKEE/TIMM CLOUDY    68  63  83 NE5       30.05F
RACINE         CLOUDY    72  69  90 S10       30.05F
6HR MIN TEMP:  68; 6HR MAX TEMP:  73; 6HR PCP:  0.04;

BURLINGTON     CLOUDY    69  67  91 E6        30.03F
KENOSHA        CLOUDY    75  71  87 SE8       30.04F
6HR MIN TEMP:  68; 6HR MAX TEMP:  75; 6HR PCP:  0.02;

FOND DU LAC    CLOUDY    65  63  93 E7        30.05F
6HR MIN TEMP:  61; 6HR MAX TEMP:  65; 6HR PCP:  0.77;

SHEBOYGAN      CLOUDY    64  62  93 NE7       30.06F FOG
6HR MIN TEMP:  60; 6HR MAX TEMP:  64; 6HR PCP:  0.35;

WEST BEND      CLOUDY    64  61  88 E5        30.06S
JUNEAU         CLOUDY    64  62  92 E9        30.06S
$$

LSZ147-162-271900-
LAKE SUPERIOR

STATION/POSITION TIME  TEMP    WIND        PRES    WAVE
                       AIR SEA DIR/SP/G            HT/PER
                 (UTC) (F)     (DEG/KT/KT) (MB)    (FT/S)
W MID LAKE BUOY  1650   65 67  140/  8/ 10 1018.3F   1/ 3
DEVILS ISLAND    1700   66     130/  3/  4 1018.2F
PORT WING        1700   67      20/  4/  5 1017.9F
SAXON HARBOR     1740   71      90/  3/  7 1017.6F
$$

LMZ867-665-643>646-271900-
LAKE MICHIGAN

STATION/POSITION TIME  TEMP    WIND        PRES    WAVE
                       AIR SEA DIR/SP/G            HT/PER
                 (UTC) (F)     (DEG/KT/KT) (MB)    (FT/S)
CHAMBERS ISLAND  1700   64     100/  2/  7 1019.0
S GREEN BAY BUOY 1700   65 71  110/  8/ 12 1018.0
N MID LAKE BUOY  1650   65 69  140/  8/ 10 1018.8F   2/ 3
NORTHPORT PIER   1700   65     130/ 11/ 14 1019.0F
SISTER BAY       1737   64     140/  2/  5   N/A
KEWAUNEE LAKESHO 1700   61      40/  4/  5 1018.0F
SHEBOYGAN LAKESH 1700   60     360/ 11/ 11 1017.5F
PORT WASHINGTON  1700   66     360/  4/  8 1018.3
ATWATER BUOY     1700   62     350/  8/ 12   N/A
MILWAUKEE LAKESH 1710   68      70/  2/  2   N/A
S MID LAKE BUOY  1650   73 74  150/ 10/ 12 1016.9R   2/ 4
KENOSHA   LAKESH 1700   69     180/  7/ 10 1017.3S
$$

TC  - TEMPERATURE IN CELSIUS
VSB - VISIBILITY IN STATUTE MILES
WCI - WIND CHILL INDEX
HX  - HEAT INDEX





USA.gov is the U.S. government's official web portal to all federal, state and local government web resources and services.